EDT,Max TemperatureF,Mean TemperatureF,Min TemperatureF,Max Dew PointF,MeanDew PointF,Min DewpointF,Max Humidity, Mean Humidity, Min Humidity, Max Sea Level PressureIn, Mean Sea Level PressureIn, Min Sea Level PressureIn, Max VisibilityMiles, Mean VisibilityMiles, Min VisibilityMiles, Max Wind SpeedMPH, Mean Wind SpeedMPH, Max Gust SpeedMPH,PrecipitationIn, CloudCover, Events, WindDirDegrees
2012-8-1,84,72,59,66,61,57,100,76,51,30.00,29.96,29.89,10,4,0,12,3,15,0.00,3,Fog,281
2012-8-2,86,75,63,67,63,57,100,72,43,30.01,29.97,29.93,10,4,0,10,2,14,0.00,4,Fog,273
2012-8-3,88,75,61,68,63,58,100,74,48,30.12,30.04,29.98,10,5,0,16,0,23,T,3,Fog,120
2012-8-4,87,76,64,69,65,63,100,76,51,30.18,30.14,30.09,10,5,0,14,4,22,T,4,Fog-Rain,165
2012-8-5,81,74,67,71,67,64,93,81,69,30.20,30.15,30.09,10,8,1,16,5,21,0.49,6,Rain,187
2012-8-6,80,71,62,70,66,62,93,74,54,30.19,30.14,30.07,10,9,2,10,2,14,0.16,6,Rain,251
2012-8-7,82,72,61,65,62,59,100,75,49,30.12,30.08,30.02,10,5,0,9,2,17,0.00,4,Fog,336
2012-8-8,85,72,58,66,60,57,100,72,43,30.12,30.06,30.01,10,5,0,12,2,15,0.00,3,Fog,268
2012-8-9,85,73,60,68,64,59,97,76,55,30.04,29.96,29.84,10,8,2,31,3,44,0.40,1,Rain,294
2012-8-10,80,71,62,64,62,59,93,74,54,29.94,29.82,29.76,10,9,1,17,4,23,0.04,6,Rain,248
2012-8-11,75,65,55,60,55,51,93,70,46,30.05,29.95,29.86,10,9,3,15,5,20,0.00,2,,262
2012-8-12,76,65,54,57,55,52,93,68,43,30.12,30.07,30.04,10,9,6,14,3,18,0.00,5,,284
2012-8-13,81,67,52,62,54,49,100,69,38,30.14,30.09,30.00,10,6,0,8,2,14,0.00,2,Fog,305
2012-8-14,81,71,60,64,61,59,100,77,54,29.99,29.95,29.89,10,9,5,14,2,18,T,5,Rain,282
2012-8-15,74,65,56,64,61,55,100,81,61,30.08,30.00,29.94,10,5,0,9,1,12,0.04,5,Fog-Rain,297
2012-8-16,80,68,55,63,57,54,100,73,45,30.13,30.07,29.98,10,4,0,13,3,16,0.00,3,Fog,265
2012-8-17,75,65,54,64,58,54,100,80,60,30.02,29.97,29.92,10,6,0,14,2,17,0.09,5,Fog-Rain,297
2012-8-18,77,67,56,60,56,54,100,75,49,30.04,30.00,29.94,10,4,0,13,2,17,0.00,6,Fog,326
2012-8-19,76,66,56,62,57,55,93,72,50,29.99,29.96,29.89,10,6,0,13,2,16,0.08,6,Fog-Rain,152
2012-8-20,75,66,56,60,57,51,100,73,46,30.05,29.96,29.91,10,8,0,14,2,17,T,5,Fog,311
2012-8-21,78,64,50,56,51,46,100,67,33,30.17,30.10,30.06,10,5,0,8,1,13,0.00,2,Fog,345
2012-8-22,80,65,50,59,52,48,100,70,39,30.23,30.19,30.15,10,5,0,12,2,15,0.00,3,Fog,334
2012-8-23,82,67,51,59,54,50,100,73,45,30.27,30.22,30.16,10,4,0,12,2,15,0.00,3,Fog,203
2012-8-24,84,70,56,62,57,55,100,70,40,30.26,30.22,30.14,10,4,0,8,1,14,0.08,4,Fog,262
2012-8-25,80,69,57,61,56,50,100,72,43,30.28,30.23,30.19,10,5,0,8,1,14,0.00,4,Fog,130
2012-8-26,82,70,58,62,59,55,100,73,45,30.25,30.19,30.13,10,9,4,9,1,15,0.00,5,,291
2012-8-27,87,71,55,62,57,52,100,66,32,30.22,30.14,30.02,10,7,0,9,2,13,0.00,3,Fog,218
2012-8-28,82,71,59,66,62,55,90,65,40,30.10,30.04,30.00,10,10,5,13,4,17,0.03,5,Rain,314
2012-8-29,78,65,52,59,56,52,100,72,43,30.12,30.08,30.04,10,4,0,13,2,18,0.00,4,Fog,305
2012-8-30,84,67,50,63,53,48,100,70,40,30.21,30.16,30.12,10,4,0,9,1,13,0.00,3,Fog,304
2012-8-31,87,70,52,68,60,52,100,74,48,30.27,30.21,30.14,10,6,0,12,2,17,0.00,4,Fog,263